Volver al catálogo

STARLINK-11575

ActivoComunicacionesVLEO
NORAD 63308·PAYLOAD·🇺🇸 United States

Lanzado Mar 18, 2025 desde Cape Canaveral Space Force Station

Loading…

Próximos Pases (próximas 24 horas)

TLE

ActualizadoSource: CelesTrak SupGP

Época: Sep 14, 2026, 20:56 UTC

1 63308C 25057B   26257.87270833  .00064869  00000+0  50398-3 0  2576
2 63308  43.0006 204.2402 0001460 259.8759 355.3546 15.70800036    17

Sigue STARLINK-11575 en tiempo real con AllMySat

Download on the App Store